Location: Hannover
(52.3723°N, 9.7339°E)
Time: 22:36:22
(UTC+02:00)

ISS - Pass Details

Date: 22 March 2019
Orbit: 408 x 410 km, 51.6° (Epoch: 21 April)

Event Time Altitude Azimuth Distance (km) Brightness Sun altitude
Rises 21:07:33 0° 237° (WSW) 2,330 0.3 -22.4°
Reaches altitude 10° 21:09:41 10° 230° (SW) 1,471 -0.8 -22.7°
Enters shadow 21:10:03 13° 228° (SW) 1,329 -1.1 -22.7°
